Year,Month,Day,Hour,Minute,Value (Times are PST for temperature in C)
2018,01,28,00,00,6.10
2018,01,28,00,01,6.10
2018,01,28,00,02,6.10
2018,01,28,00,03,6.10
2018,01,28,00,04,6.10
2018,01,28,00,05,6.10
2018,01,28,00,06,6.10
2018,01,28,00,07,6.10
2018,01,28,00,08,6.10
2018,01,28,00,09,6.10
2018,01,28,00,10,6.20
2018,01,28,00,11,6.20
2018,01,28,00,12,6.20
2018,01,28,00,13,6.20
2018,01,28,00,14,6.20
2018,01,28,00,15,6.20
2018,01,28,00,16,6.20
2018,01,28,00,17,6.20
2018,01,28,00,18,6.20
2018,01,28,00,19,6.20
2018,01,28,00,20,6.20
2018,01,28,00,21,6.20
2018,01,28,00,22,6.20
2018,01,28,00,23,6.20
2018,01,28,00,24,6.20
2018,01,28,00,25,6.20
2018,01,28,00,26,6.20
2018,01,28,00,27,6.20
2018,01,28,00,28,6.20
2018,01,28,00,29,6.20
2018,01,28,00,30,6.20
2018,01,28,00,31,6.20
2018,01,28,00,32,6.20
2018,01,28,00,33,6.20
2018,01,28,00,34,6.20
2018,01,28,00,35,6.20
2018,01,28,00,36,6.20
2018,01,28,00,37,6.20
2018,01,28,00,38,6.20
2018,01,28,00,39,6.20
2018,01,28,00,40,6.20
2018,01,28,00,41,6.20
2018,01,28,00,42,6.20
2018,01,28,00,43,6.20
2018,01,28,00,44,6.20
2018,01,28,00,45,6.20
2018,01,28,00,46,6.20
2018,01,28,00,47,6.20
2018,01,28,00,48,6.20
2018,01,28,00,49,6.20
2018,01,28,00,50,6.20
2018,01,28,00,51,6.20
2018,01,28,00,52,6.20
2018,01,28,00,53,6.20
2018,01,28,00,54,6.20
2018,01,28,00,55,6.20
2018,01,28,00,56,6.30
2018,01,28,00,57,6.30
2018,01,28,00,58,6.30
2018,01,28,00,59,6.30
2018,01,28,01,00,6.30
2018,01,28,01,01,6.30
2018,01,28,01,02,6.30
2018,01,28,01,03,6.30
2018,01,28,01,04,6.30
2018,01,28,01,05,6.30
2018,01,28,01,06,6.30
2018,01,28,01,07,6.30
2018,01,28,01,08,6.30
2018,01,28,01,09,6.30
2018,01,28,01,10,6.30
2018,01,28,01,11,6.30
2018,01,28,01,12,6.30
2018,01,28,01,13,6.30
2018,01,28,01,14,6.30
2018,01,28,01,15,6.30
2018,01,28,01,16,6.30
2018,01,28,01,17,6.30
2018,01,28,01,18,6.30
2018,01,28,01,19,6.30
2018,01,28,01,20,6.30
2018,01,28,01,21,6.30
2018,01,28,01,22,6.30
2018,01,28,01,23,6.30
2018,01,28,01,24,6.30
2018,01,28,01,25,6.30
2018,01,28,01,26,6.30
2018,01,28,01,27,6.30
2018,01,28,01,28,6.30
2018,01,28,01,29,6.30
2018,01,28,01,30,6.30
2018,01,28,01,31,6.30
2018,01,28,01,32,6.30
2018,01,28,01,33,6.30
2018,01,28,01,34,6.30
2018,01,28,01,35,6.30
2018,01,28,01,36,6.30
2018,01,28,01,37,6.30
2018,01,28,01,38,6.30
2018,01,28,01,39,6.30
2018,01,28,01,40,6.40
2018,01,28,01,41,6.30
2018,01,28,01,42,6.30
2018,01,28,01,43,6.30
2018,01,28,01,44,6.30
2018,01,28,01,45,6.20
2018,01,28,01,46,6.20
2018,01,28,01,47,6.20
2018,01,28,01,48,6.20
2018,01,28,01,49,6.20
2018,01,28,01,50,6.10
2018,01,28,01,51,6.10
2018,01,28,01,52,6.10
2018,01,28,01,53,6.10
2018,01,28,01,54,6.10
2018,01,28,01,55,6.10
2018,01,28,01,56,6.10
2018,01,28,01,57,6.10
2018,01,28,01,58,6.20
2018,01,28,01,59,6.20
2018,01,28,02,00,6.20
2018,01,28,02,01,6.10
2018,01,28,02,02,6.10
2018,01,28,02,03,6.10
2018,01,28,02,04,6.20
2018,01,28,02,05,6.20
2018,01,28,02,06,6.20
2018,01,28,02,07,6.20
2018,01,28,02,08,6.20
2018,01,28,02,09,6.20
2018,01,28,02,10,6.20
2018,01,28,02,11,6.20
2018,01,28,02,12,6.20
2018,01,28,02,13,6.20
2018,01,28,02,14,6.20
2018,01,28,02,15,6.20
2018,01,28,02,16,6.10
2018,01,28,02,17,6.10
2018,01,28,02,18,6.10
2018,01,28,02,19,6.10
2018,01,28,02,20,6.10
2018,01,28,02,21,6.10
2018,01,28,02,22,6.00
2018,01,28,02,23,6.00
2018,01,28,02,24,5.90
2018,01,28,02,25,5.90
2018,01,28,02,26,5.90
2018,01,28,02,27,5.90
2018,01,28,02,28,5.90
2018,01,28,02,29,5.90
2018,01,28,02,30,5.80
2018,01,28,02,31,5.80
2018,01,28,02,32,5.80
2018,01,28,02,33,5.80
2018,01,28,02,34,5.80
2018,01,28,02,35,5.80
2018,01,28,02,36,5.80
2018,01,28,02,37,5.70
2018,01,28,02,38,5.70
2018,01,28,02,39,5.70
2018,01,28,02,40,5.70
2018,01,28,02,41,5.70
2018,01,28,02,42,5.70
2018,01,28,02,43,5.70
2018,01,28,02,44,5.70
2018,01,28,02,45,5.70
2018,01,28,02,46,5.70
2018,01,28,02,47,5.70
2018,01,28,02,48,5.70
2018,01,28,02,49,5.70
2018,01,28,02,50,5.70
2018,01,28,02,51,5.70
2018,01,28,02,52,5.60
2018,01,28,02,53,5.60
2018,01,28,02,54,5.50
2018,01,28,02,55,5.50
2018,01,28,02,56,5.40
2018,01,28,02,57,5.40
2018,01,28,02,58,5.30
2018,01,28,02,59,5.30
2018,01,28,03,00,5.30
2018,01,28,03,01,5.30
2018,01,28,03,02,5.30
2018,01,28,03,03,5.30
2018,01,28,03,04,5.30
2018,01,28,03,05,5.30
2018,01,28,03,06,5.30
2018,01,28,03,07,5.30
2018,01,28,03,08,5.30
2018,01,28,03,09,5.30
2018,01,28,03,10,5.30
2018,01,28,03,11,5.30
2018,01,28,03,12,5.30
2018,01,28,03,13,5.30
2018,01,28,03,14,5.30
2018,01,28,03,15,5.30
2018,01,28,03,16,5.30
2018,01,28,03,17,5.30
2018,01,28,03,18,5.30
2018,01,28,03,19,5.30
2018,01,28,03,20,5.30
2018,01,28,03,21,5.30
2018,01,28,03,22,5.30
2018,01,28,03,23,5.30
2018,01,28,03,24,5.30
2018,01,28,03,25,5.30
2018,01,28,03,26,5.30
2018,01,28,03,27,5.30
2018,01,28,03,28,5.30
2018,01,28,03,29,5.30
2018,01,28,03,30,5.30
2018,01,28,03,31,5.40
2018,01,28,03,32,5.40
2018,01,28,03,33,5.40
2018,01,28,03,34,5.40
2018,01,28,03,35,5.40
2018,01,28,03,36,5.40
2018,01,28,03,37,5.40
2018,01,28,03,38,5.40
2018,01,28,03,39,5.40
2018,01,28,03,40,5.40
2018,01,28,03,41,5.40
2018,01,28,03,42,5.40
2018,01,28,03,43,5.40
2018,01,28,03,44,5.40
2018,01,28,03,45,5.40
2018,01,28,03,46,5.40
2018,01,28,03,47,5.40
2018,01,28,03,48,5.40
2018,01,28,03,49,5.40
2018,01,28,03,50,5.30
2018,01,28,03,51,5.30
2018,01,28,03,52,5.30
2018,01,28,03,53,5.30
2018,01,28,03,54,5.30
2018,01,28,03,55,5.30
2018,01,28,03,56,5.30
2018,01,28,03,57,5.30
2018,01,28,03,58,5.30
2018,01,28,03,59,5.30
2018,01,28,04,00,5.30
2018,01,28,04,01,5.30
2018,01,28,04,02,5.30
2018,01,28,04,03,5.30
2018,01,28,04,04,5.30
2018,01,28,04,05,5.30
2018,01,28,04,06,5.30
2018,01,28,04,07,5.30
2018,01,28,04,08,5.30
2018,01,28,04,09,5.30
2018,01,28,04,10,5.30
2018,01,28,04,11,5.30
2018,01,28,04,12,5.30
2018,01,28,04,13,5.30
2018,01,28,04,14,5.30
2018,01,28,04,15,5.30
2018,01,28,04,16,5.30
2018,01,28,04,17,5.30
2018,01,28,04,18,5.30
2018,01,28,04,19,5.30
2018,01,28,04,20,5.30
2018,01,28,04,21,5.30
2018,01,28,04,22,5.30
2018,01,28,04,23,5.30
2018,01,28,09,11,6.20
2018,01,28,09,12,6.20
2018,01,28,09,13,6.20
2018,01,28,09,14,6.20
2018,01,28,09,15,6.20
2018,01,28,09,16,6.20
2018,01,28,09,17,6.20
2018,01,28,09,18,6.20
2018,01,28,09,19,6.20
2018,01,28,09,20,6.20
2018,01,28,09,21,6.20
2018,01,28,09,22,6.30
2018,01,28,09,23,6.30
2018,01,28,09,24,6.30
2018,01,28,09,25,6.30
2018,01,28,09,26,6.30
2018,01,28,09,27,6.30
2018,01,28,09,28,6.30
2018,01,28,09,29,6.30
2018,01,28,09,30,6.30
2018,01,28,09,31,6.30
2018,01,28,09,32,6.30
2018,01,28,09,33,6.40
2018,01,28,09,34,6.40
2018,01,28,09,35,6.40
2018,01,28,09,36,6.40
2018,01,28,09,37,6.40
2018,01,28,09,38,6.40
2018,01,28,09,39,6.40
2018,01,28,09,40,6.40
2018,01,28,09,41,6.40
2018,01,28,09,42,6.40
2018,01,28,09,43,6.40
2018,01,28,09,44,6.40
2018,01,28,09,45,6.40
2018,01,28,09,46,6.40
2018,01,28,09,47,6.40
2018,01,28,09,48,6.40
2018,01,28,09,49,6.40
2018,01,28,09,50,6.40
2018,01,28,09,51,6.40
2018,01,28,09,52,6.40
2018,01,28,09,53,6.40
2018,01,28,09,54,6.40
2018,01,28,09,55,6.40
2018,01,28,09,56,6.40
2018,01,28,09,57,6.40
2018,01,28,09,58,6.40
2018,01,28,09,59,6.40
2018,01,28,10,00,6.40
2018,01,28,10,01,6.40
2018,01,28,10,02,6.40
2018,01,28,10,03,6.40
2018,01,28,10,04,6.40
2018,01,28,10,05,6.40
2018,01,28,10,06,6.40
2018,01,28,10,07,6.40
2018,01,28,10,08,6.40
2018,01,28,10,09,6.40
2018,01,28,10,10,6.40
2018,01,28,10,11,6.50
2018,01,28,10,12,6.60
2018,01,28,10,13,6.60
2018,01,28,10,14,6.50
2018,01,28,10,15,6.50
2018,01,28,10,16,6.40
2018,01,28,10,17,6.40
2018,01,28,10,18,6.50
2018,01,28,10,19,6.50
2018,01,28,10,20,6.50
2018,01,28,10,21,6.60
2018,01,28,10,22,6.60
2018,01,28,10,23,6.60
2018,01,28,10,24,6.60
2018,01,28,10,25,6.60
2018,01,28,10,26,6.60
2018,01,28,10,27,6.60
2018,01,28,10,28,6.60
2018,01,28,10,29,6.60
2018,01,28,10,30,6.60
2018,01,28,10,31,6.60
2018,01,28,10,32,6.60
2018,01,28,10,33,6.60
2018,01,28,10,34,6.60
2018,01,28,10,35,6.60
2018,01,28,10,36,6.60
2018,01,28,10,37,6.60
2018,01,28,10,38,6.60
2018,01,28,10,39,6.60
2018,01,28,10,40,6.60
2018,01,28,10,41,6.60
2018,01,28,10,42,6.60
2018,01,28,10,43,6.60
2018,01,28,10,44,6.60
2018,01,28,10,45,6.60
2018,01,28,10,46,6.60
2018,01,28,10,47,6.60
2018,01,28,10,48,6.60
2018,01,28,10,49,6.60
2018,01,28,10,50,6.60
2018,01,28,10,51,6.60
2018,01,28,10,52,6.60
2018,01,28,10,53,6.60
2018,01,28,10,54,6.60
2018,01,28,10,55,6.60
2018,01,28,10,56,6.70
2018,01,28,10,57,6.70
2018,01,28,10,58,6.70
2018,01,28,10,59,6.70
2018,01,28,11,00,6.70
2018,01,28,11,01,6.70
2018,01,28,11,02,6.70
2018,01,28,11,03,6.70
2018,01,28,11,04,6.70
2018,01,28,11,05,6.70
2018,01,28,11,06,6.70
2018,01,28,11,07,6.70
2018,01,28,11,08,6.70
2018,01,28,11,09,6.70
2018,01,28,11,10,6.70
2018,01,28,11,11,6.70
2018,01,28,11,12,6.70
2018,01,28,11,13,6.70
2018,01,28,11,14,6.70
2018,01,28,11,15,6.70
2018,01,28,11,16,6.70
2018,01,28,11,17,6.70
2018,01,28,11,18,6.70
2018,01,28,11,19,6.70
2018,01,28,11,20,6.70
2018,01,28,11,21,6.70
2018,01,28,11,22,6.70
2018,01,28,11,23,6.70
2018,01,28,11,24,6.70
2018,01,28,11,25,6.70
2018,01,28,11,26,6.70
2018,01,28,11,27,6.80
2018,01,28,11,28,6.80
2018,01,28,11,29,6.80
2018,01,28,11,30,6.80
2018,01,28,11,31,6.80
2018,01,28,11,32,6.80
2018,01,28,11,33,6.80
2018,01,28,11,34,6.80
2018,01,28,11,35,6.80
2018,01,28,11,36,6.80
2018,01,28,11,37,6.80
2018,01,28,11,38,6.80
2018,01,28,11,39,6.80
2018,01,28,11,40,6.80
2018,01,28,11,41,6.80
2018,01,28,11,42,6.80
2018,01,28,11,43,6.80
2018,01,28,11,44,6.80
2018,01,28,11,45,6.80
2018,01,28,11,46,6.80
2018,01,28,11,47,6.80
2018,01,28,11,48,6.80
2018,01,28,11,49,6.80
2018,01,28,11,50,6.80
2018,01,28,11,51,6.80
2018,01,28,11,52,6.80
2018,01,28,11,53,6.90
2018,01,28,11,54,6.90
2018,01,28,11,55,6.90
2018,01,28,11,56,6.90
2018,01,28,11,57,6.90
2018,01,28,11,58,6.90
2018,01,28,11,59,6.90
2018,01,28,12,00,6.90
2018,01,28,12,01,6.90
2018,01,28,12,02,6.90
2018,01,28,12,03,6.90
2018,01,28,12,04,6.90
2018,01,28,12,05,6.90
2018,01,28,12,06,6.90
2018,01,28,12,07,6.90
2018,01,28,12,08,6.90
2018,01,28,12,09,6.90
2018,01,28,12,10,6.90
2018,01,28,12,11,6.90
2018,01,28,12,12,6.90
2018,01,28,12,13,6.90
2018,01,28,12,14,6.90
2018,01,28,12,15,6.90
2018,01,28,12,16,6.90
2018,01,28,12,17,6.90
2018,01,28,12,18,6.90
2018,01,28,12,19,7.00
2018,01,28,12,20,7.00
2018,01,28,12,21,7.00
2018,01,28,12,22,7.00
2018,01,28,12,23,7.00
2018,01,28,12,24,7.00
2018,01,28,12,25,7.00
2018,01,28,12,26,7.00
2018,01,28,12,27,7.00
2018,01,28,12,28,7.00
2018,01,28,12,29,7.00
2018,01,28,12,30,7.00
2018,01,28,12,31,7.00
2018,01,28,12,32,7.00
2018,01,28,12,33,7.00
2018,01,28,12,34,7.00
2018,01,28,12,35,7.00
2018,01,28,12,36,7.00
2018,01,28,12,37,7.00
2018,01,28,12,38,7.00
2018,01,28,12,39,7.00
2018,01,28,12,40,7.10
2018,01,28,12,41,7.10
2018,01,28,12,42,7.10
2018,01,28,12,43,7.10
2018,01,28,12,44,7.10
2018,01,28,12,45,7.10
2018,01,28,12,46,7.10
2018,01,28,12,47,7.10
2018,01,28,12,48,7.10
2018,01,28,12,49,7.10
2018,01,28,12,50,7.10
2018,01,28,12,51,7.10
2018,01,28,12,52,7.10
2018,01,28,12,53,7.10
2018,01,28,12,54,7.20
2018,01,28,12,55,7.20
2018,01,28,12,56,7.20
2018,01,28,12,57,7.20
2018,01,28,12,58,7.20
2018,01,28,12,59,7.20
2018,01,28,13,00,7.20
2018,01,28,13,01,7.20
2018,01,28,13,02,7.20
2018,01,28,13,03,7.20
2018,01,28,13,04,7.20
2018,01,28,13,05,7.20
2018,01,28,13,06,7.20
2018,01,28,13,07,7.20
2018,01,28,13,08,7.20
2018,01,28,13,09,7.20
2018,01,28,13,10,7.20
2018,01,28,13,11,7.20
2018,01,28,13,12,7.30
2018,01,28,13,13,7.30
2018,01,28,13,14,7.30
2018,01,28,13,15,7.30
2018,01,28,13,16,7.30
2018,01,28,13,17,7.30
2018,01,28,13,18,7.30
2018,01,28,13,19,7.30
2018,01,28,13,20,7.30
2018,01,28,13,21,7.30
2018,01,28,13,22,7.30
2018,01,28,13,23,7.30
2018,01,28,13,24,7.30
2018,01,28,13,25,7.30
2018,01,28,13,26,7.30
2018,01,28,13,27,7.30
2018,01,28,13,28,7.30
2018,01,28,13,29,7.30
2018,01,28,13,30,7.30
2018,01,28,13,31,7.30
2018,01,28,13,32,7.40
2018,01,28,13,33,7.40
2018,01,28,13,34,7.40
2018,01,28,13,35,7.40
2018,01,28,13,36,7.40
2018,01,28,13,37,7.40
2018,01,28,13,38,7.40
2018,01,28,13,39,7.40
2018,01,28,13,40,7.40
2018,01,28,13,41,7.40
2018,01,28,13,42,7.40
2018,01,28,13,43,7.50
2018,01,28,13,44,7.50
2018,01,28,13,45,7.50
2018,01,28,13,46,7.50
2018,01,28,13,47,7.50
2018,01,28,13,48,7.50
2018,01,28,13,49,7.60
2018,01,28,13,50,7.50
2018,01,28,13,51,7.50
2018,01,28,13,52,7.60
2018,01,28,13,53,7.60
2018,01,28,13,54,7.60
2018,01,28,13,55,7.60
2018,01,28,13,56,7.60
2018,01,28,13,57,7.60
2018,01,28,13,58,7.60
2018,01,28,13,59,7.60
2018,01,28,14,00,7.60
2018,01,28,14,01,7.60
2018,01,28,14,02,7.60
2018,01,28,14,03,7.60
2018,01,28,14,04,7.60
2018,01,28,14,05,7.60
2018,01,28,14,06,7.60
2018,01,28,14,07,7.60
2018,01,28,14,08,7.60
2018,01,28,14,09,7.60
2018,01,28,14,10,7.60
2018,01,28,14,11,7.60
2018,01,28,14,12,7.60
2018,01,28,14,13,7.60
2018,01,28,14,14,7.70
2018,01,28,14,15,7.70
2018,01,28,14,16,7.70
2018,01,28,14,17,7.70
2018,01,28,14,18,7.70
2018,01,28,14,19,7.70
2018,01,28,14,20,7.70
2018,01,28,14,21,7.70
2018,01,28,14,22,7.70
2018,01,28,14,23,7.70
2018,01,28,14,24,7.70
2018,01,28,14,25,7.70
2018,01,28,14,26,7.70
2018,01,28,14,27,7.60
2018,01,28,14,28,7.60
2018,01,28,14,29,7.60
2018,01,28,14,30,7.60
2018,01,28,14,31,7.60
2018,01,28,14,32,7.60
2018,01,28,14,33,7.60
2018,01,28,14,34,7.60
2018,01,28,14,35,7.60
2018,01,28,14,36,7.60
2018,01,28,14,37,7.70
2018,01,28,14,38,7.70
2018,01,28,14,39,7.70
2018,01,28,14,40,7.70
2018,01,28,14,41,7.70
2018,01,28,14,42,7.70
2018,01,28,14,43,7.70
2018,01,28,14,44,7.60
2018,01,28,14,45,7.60
2018,01,28,14,46,7.60
2018,01,28,14,47,7.60
2018,01,28,14,48,7.70
2018,01,28,14,49,7.70
2018,01,28,14,50,7.70
2018,01,28,14,51,7.70
2018,01,28,14,52,7.70
2018,01,28,14,53,7.70
2018,01,28,14,54,7.70
2018,01,28,14,55,7.70
2018,01,28,14,56,7.70
2018,01,28,14,57,7.70
2018,01,28,14,58,7.70
2018,01,28,14,59,7.70
2018,01,28,15,00,7.70
2018,01,28,15,01,7.70
2018,01,28,15,02,7.70
2018,01,28,15,03,7.70
2018,01,28,15,04,7.70
2018,01,28,15,05,7.70
2018,01,28,15,06,7.70
2018,01,28,15,07,7.70
2018,01,28,15,08,7.70
2018,01,28,15,09,7.70
2018,01,28,15,10,7.80
2018,01,28,15,11,7.80
2018,01,28,15,12,7.80
2018,01,28,15,13,7.80
2018,01,28,15,14,7.80
2018,01,28,15,15,7.80
2018,01,28,15,16,7.80
2018,01,28,15,17,7.80
2018,01,28,15,18,7.80
2018,01,28,15,19,7.80
2018,01,28,15,20,7.80
2018,01,28,15,21,7.80
2018,01,28,15,22,7.90
2018,01,28,15,23,7.90
2018,01,28,15,24,7.90
2018,01,28,15,25,7.90
2018,01,28,15,26,7.90
2018,01,28,15,27,7.90
2018,01,28,15,28,8.00
2018,01,28,15,29,8.00
2018,01,28,15,30,8.00
2018,01,28,15,31,8.00
2018,01,28,15,32,8.10
2018,01,28,15,33,8.10
2018,01,28,15,34,8.10
2018,01,28,15,35,8.10
2018,01,28,15,36,8.10
2018,01,28,15,37,8.10
2018,01,28,15,38,8.10
2018,01,28,15,39,8.20
2018,01,28,15,40,8.20
2018,01,28,15,41,8.20
2018,01,28,15,42,8.20
2018,01,28,15,43,8.20
2018,01,28,15,44,8.20
2018,01,28,15,45,8.20
2018,01,28,15,46,8.20
2018,01,28,15,47,8.20
2018,01,28,15,48,8.20
2018,01,28,15,49,8.20
2018,01,28,15,50,8.20
2018,01,28,15,51,8.20
2018,01,28,15,52,8.20
2018,01,28,15,53,8.20
2018,01,28,15,54,8.10
2018,01,28,15,55,8.10
2018,01,28,15,56,8.10
2018,01,28,15,57,8.10
2018,01,28,15,58,8.10
2018,01,28,15,59,8.10
2018,01,28,16,00,8.00
2018,01,28,16,01,8.00
2018,01,28,16,02,8.00
2018,01,28,16,03,7.90
2018,01,28,16,04,7.90
2018,01,28,16,05,7.90
2018,01,28,16,06,7.90
2018,01,28,16,07,7.90
2018,01,28,16,08,7.90
2018,01,28,16,09,7.90
2018,01,28,16,10,7.90
2018,01,28,16,11,7.90
2018,01,28,16,12,7.90
2018,01,28,16,13,7.90
2018,01,28,16,14,7.80
2018,01,28,16,15,7.80
2018,01,28,16,16,7.80
2018,01,28,16,17,7.80
2018,01,28,16,18,7.80
2018,01,28,16,19,7.80
2018,01,28,16,20,7.80
2018,01,28,16,21,7.80
2018,01,28,16,22,7.80
2018,01,28,16,23,7.80
2018,01,28,16,24,7.80
2018,01,28,16,25,7.80
2018,01,28,16,26,7.80
2018,01,28,16,27,7.80
2018,01,28,16,28,7.80
2018,01,28,16,29,7.80
2018,01,28,16,30,7.80
2018,01,28,16,31,7.80
2018,01,28,16,32,7.80
2018,01,28,16,33,7.80
2018,01,28,16,34,7.80
2018,01,28,16,35,7.80
2018,01,28,16,36,7.80
2018,01,28,16,37,7.80
2018,01,28,16,38,7.90
2018,01,28,16,39,7.90
2018,01,28,16,40,7.80
2018,01,28,16,41,7.80
2018,01,28,16,42,7.80
2018,01,28,16,43,7.80
2018,01,28,16,44,7.80
2018,01,28,16,45,7.80
2018,01,28,16,46,7.90
2018,01,28,16,47,7.90
2018,01,28,16,48,7.90
2018,01,28,16,49,7.90
2018,01,28,16,50,7.90
2018,01,28,16,51,7.90
2018,01,28,16,52,7.90
2018,01,28,16,53,8.00
2018,01,28,16,54,8.00
2018,01,28,16,55,8.00
2018,01,28,16,56,8.00
2018,01,28,16,57,8.00
2018,01,28,16,58,8.00
2018,01,28,16,59,7.90
2018,01,28,17,00,7.90
2018,01,28,17,01,7.90
2018,01,28,17,02,7.90
2018,01,28,17,03,7.90
2018,01,28,17,04,7.90
2018,01,28,17,05,7.90
2018,01,28,17,06,7.90
2018,01,28,17,07,7.90
2018,01,28,17,08,7.90
2018,01,28,17,09,7.90
2018,01,28,17,10,7.90
2018,01,28,17,11,7.90
2018,01,28,17,12,7.90
2018,01,28,17,13,7.90
2018,01,28,17,14,7.90
2018,01,28,17,15,8.00
2018,01,28,17,16,8.00
2018,01,28,17,17,8.00
2018,01,28,17,18,7.90
2018,01,28,17,19,7.90
2018,01,28,17,20,7.90
2018,01,28,17,21,7.90
2018,01,28,17,22,7.90
2018,01,28,17,23,7.90
2018,01,28,17,24,7.90
2018,01,28,17,25,7.90
2018,01,28,17,26,7.90
2018,01,28,17,27,7.90
2018,01,28,17,28,7.90
2018,01,28,17,29,7.90
2018,01,28,17,30,7.90
2018,01,28,17,31,7.90
2018,01,28,17,32,7.90
2018,01,28,17,33,7.90
2018,01,28,17,34,7.90
2018,01,28,17,35,7.90
2018,01,28,17,36,7.90
2018,01,28,17,37,7.90
2018,01,28,17,38,7.90
2018,01,28,17,39,7.90
2018,01,28,17,40,7.90
2018,01,28,17,41,7.90
2018,01,28,17,42,7.90
2018,01,28,17,43,7.90
2018,01,28,17,44,7.90
2018,01,28,17,45,7.90
2018,01,28,17,46,7.90
2018,01,28,17,47,8.00
2018,01,28,17,48,8.00
2018,01,28,17,49,8.00
2018,01,28,17,50,8.00
2018,01,28,17,51,8.00
2018,01,28,17,52,8.00
2018,01,28,17,53,8.00
2018,01,28,17,54,8.00
2018,01,28,17,55,8.00
2018,01,28,17,56,8.00
2018,01,28,17,57,8.00
2018,01,28,17,58,8.00
2018,01,28,17,59,8.00
2018,01,28,18,00,8.00
2018,01,28,18,01,8.00
2018,01,28,18,02,8.00
2018,01,28,18,03,8.00
2018,01,28,18,04,8.00
2018,01,28,18,05,8.00
2018,01,28,18,06,8.00
2018,01,28,18,07,8.10
2018,01,28,18,08,8.10
2018,01,28,18,09,8.10
2018,01,28,18,10,8.10
2018,01,28,18,11,8.10
2018,01,28,18,12,8.10
2018,01,28,18,13,8.20
2018,01,28,18,14,8.20
2018,01,28,18,15,8.20
2018,01,28,18,16,8.20
2018,01,28,18,17,8.20
2018,01,28,18,18,8.20
2018,01,28,18,19,8.20
2018,01,28,18,20,8.20
2018,01,28,18,21,8.20
2018,01,28,18,22,8.20
2018,01,28,18,23,8.20
2018,01,28,18,24,8.20
2018,01,28,18,25,8.20
2018,01,28,18,26,8.20
2018,01,28,18,27,8.20
2018,01,28,18,28,8.20
2018,01,28,18,29,8.20
2018,01,28,18,30,8.20
2018,01,28,18,31,8.20
2018,01,28,18,32,8.20
2018,01,28,18,33,8.20
2018,01,28,18,34,8.20
2018,01,28,18,35,8.20
2018,01,28,18,36,8.20
2018,01,28,18,37,8.20
2018,01,28,18,38,8.20
2018,01,28,18,39,8.20
2018,01,28,18,40,8.20
2018,01,28,18,41,8.20
2018,01,28,18,42,8.20
2018,01,28,18,43,8.20
2018,01,28,18,44,8.20
2018,01,28,18,45,8.20
2018,01,28,18,46,8.20
2018,01,28,18,47,8.30
2018,01,28,18,48,8.30
2018,01,28,18,49,8.30
2018,01,28,18,50,8.30
2018,01,28,18,51,8.40
2018,01,28,18,52,8.40
2018,01,28,18,53,8.40
2018,01,28,18,54,8.40
2018,01,28,18,55,8.40
2018,01,28,18,56,8.40
2018,01,28,18,57,8.40
2018,01,28,18,58,8.40
2018,01,28,18,59,8.40
2018,01,28,19,00,8.40
2018,01,28,19,01,8.40
2018,01,28,19,02,8.40
2018,01,28,19,03,8.40
2018,01,28,19,04,8.40
2018,01,28,19,05,8.40
2018,01,28,19,06,8.40
2018,01,28,19,07,8.40
2018,01,28,19,08,8.40
2018,01,28,19,09,8.40
2018,01,28,19,10,8.40
2018,01,28,19,11,8.40
2018,01,28,19,12,8.40
2018,01,28,19,13,8.40
2018,01,28,19,14,8.30
2018,01,28,19,15,8.30
2018,01,28,19,16,8.30
2018,01,28,19,17,8.40
2018,01,28,19,18,8.30
2018,01,28,19,19,8.30
2018,01,28,19,20,8.30
2018,01,28,19,21,8.30
2018,01,28,19,22,8.30
2018,01,28,19,23,8.30
2018,01,28,19,24,8.30
2018,01,28,19,25,8.30
2018,01,28,19,26,8.30
2018,01,28,19,27,8.40
2018,01,28,19,28,8.40
2018,01,28,19,29,8.40
2018,01,28,19,30,8.40
2018,01,28,19,31,8.30
2018,01,28,19,32,8.30
2018,01,28,19,33,8.30
2018,01,28,19,34,8.30
2018,01,28,19,35,8.30
2018,01,28,19,36,8.30
2018,01,28,19,37,8.30
2018,01,28,19,38,8.30
2018,01,28,19,39,8.30
2018,01,28,19,40,8.30
2018,01,28,19,41,8.30
2018,01,28,19,42,8.30
2018,01,28,19,43,8.30
2018,01,28,19,44,8.20
2018,01,28,19,45,8.20
2018,01,28,19,46,8.20
2018,01,28,19,47,8.20
2018,01,28,19,48,8.30
2018,01,28,19,49,8.30
2018,01,28,19,50,8.30
2018,01,28,19,51,8.40
2018,01,28,19,52,8.40
2018,01,28,19,53,8.40
2018,01,28,19,54,8.40
2018,01,28,19,55,8.40
2018,01,28,19,56,8.50
2018,01,28,19,57,8.50
2018,01,28,19,58,8.50
2018,01,28,19,59,8.50
2018,01,28,20,00,8.50
2018,01,28,20,01,8.50
2018,01,28,20,02,8.60
2018,01,28,20,03,8.60
2018,01,28,20,04,8.60
2018,01,28,20,05,8.60
2018,01,28,20,06,8.60
2018,01,28,20,07,8.60
2018,01,28,20,08,8.60
2018,01,28,20,09,8.60
2018,01,28,20,10,8.70
2018,01,28,20,11,8.70
2018,01,28,20,12,8.70
2018,01,28,20,13,8.70
2018,01,28,20,14,8.70
2018,01,28,20,15,8.70
2018,01,28,20,16,8.70
2018,01,28,20,17,8.70
2018,01,28,20,18,8.70
2018,01,28,20,19,8.70
2018,01,28,20,20,8.70
2018,01,28,20,21,8.70
2018,01,28,20,22,8.70
2018,01,28,20,23,8.70
2018,01,28,20,24,8.70
2018,01,28,20,25,8.70
2018,01,28,20,26,8.70
2018,01,28,20,27,8.70
2018,01,28,20,28,8.60
2018,01,28,20,29,8.60
2018,01,28,20,30,8.60
2018,01,28,20,31,8.60
2018,01,28,20,32,8.60
2018,01,28,20,33,8.60
2018,01,28,20,34,8.60
2018,01,28,20,35,8.70
2018,01,28,20,36,8.70
2018,01,28,20,37,8.70
2018,01,28,20,38,8.70
2018,01,28,20,39,8.70
2018,01,28,20,40,8.70
2018,01,28,20,41,8.70
2018,01,28,20,42,8.70
2018,01,28,20,43,8.70
2018,01,28,20,44,8.70
2018,01,28,20,45,8.70
2018,01,28,20,46,8.70
2018,01,28,20,47,8.70
2018,01,28,20,48,8.70
2018,01,28,20,49,8.70
2018,01,28,20,50,8.70
2018,01,28,20,51,8.70
2018,01,28,20,52,8.70
2018,01,28,20,53,8.70
2018,01,28,20,54,8.70
2018,01,28,20,55,8.70
2018,01,28,20,56,8.70
2018,01,28,20,57,8.70
2018,01,28,20,58,8.70
2018,01,28,20,59,8.70
2018,01,28,21,00,8.70
2018,01,28,21,01,8.70
2018,01,28,21,02,8.70
2018,01,28,21,03,8.60
2018,01,28,21,04,8.60
2018,01,28,21,05,8.60
2018,01,28,21,06,8.60
2018,01,28,21,07,8.60
2018,01,28,21,08,8.60
2018,01,28,21,09,8.60
2018,01,28,21,10,8.60
2018,01,28,21,11,8.60
2018,01,28,21,12,8.60
2018,01,28,21,13,8.60
2018,01,28,21,14,8.60
2018,01,28,21,15,8.60
2018,01,28,21,16,8.60
2018,01,28,21,17,8.60
2018,01,28,21,18,8.60
2018,01,28,21,19,8.60
2018,01,28,21,20,8.60
2018,01,28,21,21,8.60
2018,01,28,21,22,8.60
2018,01,28,21,23,8.60
2018,01,28,21,24,8.60
2018,01,28,21,25,8.60
2018,01,28,21,26,8.60
2018,01,28,21,27,8.70
2018,01,28,21,28,8.70
2018,01,28,21,29,8.70
2018,01,28,21,30,8.70
2018,01,28,21,31,8.70
2018,01,28,21,32,8.70
2018,01,28,21,33,8.70
2018,01,28,21,34,8.70
2018,01,28,21,35,8.70
2018,01,28,21,36,8.70
2018,01,28,21,37,8.70
2018,01,28,21,38,8.70
2018,01,28,21,39,8.70
2018,01,28,21,40,8.70
2018,01,28,21,41,8.70
2018,01,28,21,42,8.70
2018,01,28,21,43,8.70
2018,01,28,21,44,8.70
2018,01,28,21,45,8.70
2018,01,28,21,46,8.70
2018,01,28,21,47,8.70
2018,01,28,21,48,8.70
2018,01,28,21,49,8.70
2018,01,28,21,50,8.70
2018,01,28,21,51,8.70
2018,01,28,21,52,8.70
2018,01,28,21,53,8.70
2018,01,28,21,54,8.70
2018,01,28,21,55,8.70
2018,01,28,21,56,8.70
2018,01,28,21,57,8.70
2018,01,28,21,58,8.70
2018,01,28,21,59,8.70
2018,01,28,22,00,8.80
2018,01,28,22,01,8.80
2018,01,28,22,02,8.80
2018,01,28,22,03,8.80
2018,01,28,22,04,8.80
2018,01,28,22,05,8.80
2018,01,28,22,06,8.80
2018,01,28,22,07,8.80
2018,01,28,22,08,8.80
2018,01,28,22,09,8.80
2018,01,28,22,10,8.80
2018,01,28,22,11,8.90
2018,01,28,22,12,8.90
2018,01,28,22,13,8.90
2018,01,28,22,14,8.90
2018,01,28,22,15,8.90
2018,01,28,22,16,8.90
2018,01,28,22,17,8.90
2018,01,28,22,18,8.90
2018,01,28,22,19,8.90
2018,01,28,22,20,8.90
2018,01,28,22,21,8.90
2018,01,28,22,22,8.90
2018,01,28,22,23,8.90
2018,01,28,22,24,8.90
2018,01,28,22,25,8.90
2018,01,28,22,26,8.90
2018,01,28,22,27,8.90
2018,01,28,22,28,8.90
2018,01,28,22,29,8.90
2018,01,28,22,30,8.90
2018,01,28,22,31,8.90
2018,01,28,22,32,8.90
2018,01,28,22,33,8.90
2018,01,28,22,34,8.90
2018,01,28,22,35,8.90
2018,01,28,22,36,8.90
2018,01,28,22,37,8.80
2018,01,28,22,38,8.80
2018,01,28,22,39,8.80
2018,01,28,22,40,8.80
2018,01,28,22,41,8.80
2018,01,28,22,42,8.80
2018,01,28,22,43,8.80
2018,01,28,22,44,8.80
2018,01,28,22,45,8.80
2018,01,28,22,46,8.80
2018,01,28,22,47,8.80
2018,01,28,22,48,8.70
2018,01,28,22,49,8.70
2018,01,28,22,50,8.70
2018,01,28,22,51,8.70
2018,01,28,22,52,8.70
2018,01,28,22,53,8.70